STARLINK-32456, 62041

Orbit data source: Space-Track

STARLINK-32456, 62041 is a payload satellite owned by SpaceX/Seattle (US) in LEO that was launched on Thu, 21 Nov 2024 UTC via an FALCON 9 launch vehicle from the Air Force Eastern Test Range (AFETR). Payload-class satellites include a variety of spacecraft equipped with specific instruments for various scientific and technological missions. These include communications satellites like Starlink; space stations such as the ISS; scientific satellites like the Hubble; Earth observation satellites from companies like Planet Labs, Umbra, and HawkEye 360; GPS; miniature CubeSats for education and research; and military/defense satellites.

Loading next visibility...
Identifier
62041, 2024-216K
Orbit
LEO
Last TLE update
9 hours ago
Origin
Manufacturer
SpaceX/Seattle
Mission
Operational Commercial Communications
Bus & Motor
STARLINK V2M, Unknown motor
Mass
730 kg wet, ~700 kg dry
Launch date (UTC)
2024-11-21 (8 months ago)
Launch vehicle
FALCON 9
Launch site
Air Force Eastern Test Range (AFETR)
Object type
Payload
Rocket body
Debris
Shape & HBR
Box + 2 Pan, 29 m
Radar Cross Section
36.964 m², Large (>1 m²)

Expand to show TLE details & history

TLE from 9 hours ago
0 STARLINK-32456
1 62041U 24216K   25189.91668981  .00036806  00000-0  13410-2 0  9995
2 62041  43.0002 193.2782 0001447 277.0456 341.9407 15.27564259  5967
Epoch: 2025-07-08T22:00Z
TLE epoch observation values (Epoch: 2025-07-08T22:00:01.999Z)
Latitude
-42.18422°
Longitude
-168.71632°
Altitude
495.099 km
Speed
7.618 km/s
True Right ascension
05h 53m 35s
True Declination
-42° 00' 24"
Sunlit
Object was in daylight at epoch
Visualization orbit readout
Latitude
-28.21464°
Longitude
148.88662°
Altitude
489.79 km
Speed
7.621 km/s
Apparent Right ascension
04h 59m 05s
Apparent Declination
-38° 17' 40"
Sunlit
Object is in daylight
Visualization observer readout
Local Sidereal Time
19:25:10
Azimuth
98.594° ESE
Elevation
-61.812°
Doppler factor
1
Orbital elements
Apogee altitude
486.034 km
Perigee altitude
484.048 km
Semi-major axis
6,863.178 km
Eccentricity
0.00014
Inclination
43.0002°
RAAN
193.2782°
Arg. of periapsis
277.0456°
True anomaly
Unknown
Mean anomaly
341.9407°
Eccentric anomaly
Unknown
Mean motion
3.81729 °/min
Orbital period
94.31 mins
BSTAR
0.001341
Loading maneuver chart data...
Loading SW <> Apogee altitude chart data...
Loading historical data...
Loading historical data...
Loading historical data...
Loading historical data...
Loading historical data...
Loading historical data...
Loading historical data...

STARLINK-32456 Visibility forecast

Observer location: undefined°, undefined°

Span
Click to sort rows by Start time (UTC) header in descending order
Start Az.
Max El. time (UTC)
Max El. Az.
Max El.
End time (UTC)
End Az.
7 mins2025-07-09 08:16:42.758Z288.011° WNW2025-07-09 08:19:42.758Z287.725° WNW42.576°2025-07-09 08:23:42.758Z109.405° ESE
4 mins2025-07-09 09:57:42.758Z240.582° WSW2025-07-09 09:58:42.758Z217.32° SW20.916°2025-07-09 10:01:42.758Z162.542° S
4 mins2025-07-10 02:53:42.758Z186.956° SSW2025-07-10 02:55:42.758Z138.283° SSE23.276°2025-07-10 02:57:42.758Z98.061° ESE
6 mins2025-07-10 04:31:42.758Z255.642° W2025-07-10 04:33:42.758Z271.841° WNW43.126°2025-07-10 04:37:42.758Z71.353° E
6 mins2025-07-10 06:10:42.758Z288.866° WNW2025-07-10 06:13:42.758Z28.431° NE36.533°2025-07-10 06:16:42.758Z77.414° E
|